Wind_Speed
13 14 14 14 14 13 13 13 13 13 12 11 10 10 10 9 8 8 8 8 8 7 6 6 6 7 8 8 7 6 6 6 5 5 5 5 4 3 3 3 3 2 2 2 3 2 2 1 1
14 14 14 14 15 14 14 14 14 14 13 12 11 11 10 9 8 7 7 8 8 7 7 7 7 8 8 8 7 6 6 5 4 4 4 4 4 3 2 2 2 2 3 3 3 2 2 1 2
15 14 14 15 15 15 14 15 14 14 13 13 12 12 10 9 8 8 8 8 8 8 8 8 8 7 7 7 6 6 5 5 5 4 4 4 3 3 3 2 3 3 4 3 3 2 2 2 2
15 14 14 15 16 15 15 15 15 14 14 14 13 12 11 9 9 8 8 8 8 8 8 8 8 8 7 7 6 6 6 6 6 6 5 5 3 3 3 3 3 3 3 3 3 2 2 2 2
14 14 15 16 16 16 15 15 15 15 14 14 13 12 11 9 8 8 8 8 7 7 7 8 8 8 7 7 6 6 6 6 6 6 6 5 4 3 3 4 4 4 4 3 3 3 3 3 2
14 14 15 15 15 15 14 14 14 15 15 14 13 12 11 9 8 7 7 7 7 6 7 7 8 8 7 7 7 7 7 6 6 5 5 5 5 5 4 4 3 3 3 3 3 3 3 2 2
14 14 14 14 14 14 14 13 14 15 15 14 13 12 11 10 9 8 7 7 7 7 7 8 8 8 8 8 8 8 7 6 6 5 6 6 6 5 5 4 4 3 3 3 3 3 3 3 2
12 12 13 13 13 13 13 13 13 14 14 14 13 12 11 10 9 9 8 8 7 7 8 8 8 8 8 8 8 8 7 7 6 5 5 5 5 5 5 4 4 4 3 2 3 3 3 3 3
10 10 12 12 12 13 12 12 13 14 13 13 12 12 11 10 10 9 8 8 7 8 8 9 9 8 8 8 7 7 6 6 6 6 5 4 4 4 4 3 3 3 3 3 3 3 3 4 4
9 10 11 12 11 12 12 12 12 13 13 13 12 11 10 10 9 9 8 8 7 7 8 8 8 8 8 8 7 6 6 6 5 5 4 4 3 3 3 3 3 3 3 3 3 3 4 4 5
8 9 10 11 11 12 12 11 11 12 12 12 11 10 10 9 9 8 7 7 6 6 6 7 7 7 8 7 7 6 5 5 5 4 3 3 2 2 2 2 2 2 3 3 4 3 4 5 6
7 8 8 9 10 11 11 11 10 11 12 11 11 10 9 9 9 9 8 6 6 5 5 5 5 5 6 5 5 5 5 4 4 3 3 3 2 2 2 2 2 3 3 3 4 5 5 6 7
6 7 7 8 9 10 10 10 10 10 11 11 11 10 9 9 9 8 8 7 6 5 5 5 5 4 4 4 4 4 4 3 3 2 3 2 2 2 2 2 3 3 3 4 4 5 6 6 7
4 6 7 7 7 8 9 9 9 10 10 10 11 10 10 9 9 8 8 7 6 5 5 5 4 3 3 3 3 3 3 3 2 1 1 1 2 2 3 3 3 3 4 5 5 6 6 6 7
2 3 5 6 6 6 7 8 9 9 9 10 10 10 10 10 9 8 7 6 6 6 5 5 4 3 2 2 3 3 3 2 2 2 2 2 3 3 3 3 4 5 5 6 6 7 8 8 8
1 1 2 3 4 5 6 6 7 8 8 9 9 9 9 8 9 8 7 6 6 5 5 4 4 3 2 2 2 1 2 2 2 3 3 3 4 4 5 5 6 6 7 7 8 8 8 9 9
2 2 1 2 2 3 4 5 5 6 7 8 7 8 8 7 8 8 7 6 6 5 5 4 4 2 1 1 2 1 1 3 3 3 4 4 4 6 6 6 7 8 8 9 10 10 11 11 11
5 4 4 4 3 3 2 2 3 4 5 6 6 7 7 6 7 7 7 7 6 6 5 4 4 3 2 1 1 1 3 4 5 5 5 5 6 6 7 8 9 9 10 11 11 11 12 12 13
8 8 8 7 7 5 3 3 2 3 4 4 5 6 7 6 6 6 6 6 7 6 5 4 3 3 3 2 2 2 3 5 5 6 6 6 7 8 9 10 10 11 12 13 13 13 13 14 14
11 10 9 9 9 7 6 5 4 5 5 5 5 5 5 6 6 6 6 6 8 6 5 4 4 5 5 4 3 4 4 5 6 6 7 8 8 9 11 12 12 13 13 14 14 14 15 15 16
13 12 10 11 12 11 8 6 6 5 6 6 6 6 6 6 6 7 7 8 8 8 7 5 5 5 6 5 4 4 5 6 7 7 9 9 9 10 11 12 13 13 14 15 15 16 16 16 17
15 14 14 13 13 12 11 9 8 8 7 7 7 8 8 7 7 9 9 10 9 8 7 6 6 6 6 6 6 6 6 7 8 8 9 10 10 11 12 13 13 15 15 16 17 17 17 17 18
18 18 17 15 14 14 13 12 10 10 10 10 10 10 10 9 9 10 10 10 9 9 8 8 8 8 8 8 8 7 8 8 9 10 10 10 11 12 13 14 15 16 16 17 17 17 18 18 19
20 19 19 18 17 16 15 15 13 12 12 12 12 12 11 11 11 10 10 9 9 9 9 9 8 9 9 9 9 9 9 10 11 11 11 11 12 13 14 15 15 16 17 17 18 18 19 19 19
21 21 20 20 20 19 17 17 15 14 13 13 13 13 12 11 11 11 11 10 10 10 10 10 10 10 9 9 9 10 10 11 12 12 13 13 14 15 15 16 16 17 18 18 19 20 19 20 20
22 21 21 21 20 19 19 19 17 16 14 14 14 14 14 12 11 11 12 11 11 12 11 11 11 11 11 11 11 12 11 12 13 14 15 15 16 16 17 17 18 18 19 19 20 21 21 21 21
22 22 21 22 22 22 21 20 19 18 16 16 16 16 15 13 12 12 13 14 13 13 14 13 13 12 12 12 13 14 14 15 16 17 17 18 17 18 18 19 19 20 20 21 21 21 21 21 21
22 22 22 23 24 24 23 21 19 18 18 17 17 16 16 15 14 14 15 15 14 14 15 16 15 15 15 15 15 15 16 17 18 19 19 19 20 20 19 20 20 21 21 21 21 21 21 21 21
22 22 23 24 24 25 25 23 20 19 18 18 19 19 17 16 15 16 16 15 14 15 15 16 16 16 17 17 18 18 18 19 20 20 20 20 21 21 21 21 21 21 22 21 21 22 22 21 22
24 23 24 25 25 26 26 24 21 21 19 19 20 19 19 18 17 17 17 16 16 17 16 17 17 17 18 18 18 18 19 19 19 20 21 21 22 22 22 22 22 22 22 23 23 23 22 22 23
Wind_Direction
78 77 74 75 72 67 66 67 65 58 54 55 54 53 50 50 51 52 51 49 44 47 59 71 82 85 94 108 116 110 110 113 121 126 127 125 121 113 107 101 95 74 48 32 36 37 43 65 54
81 77 73 74 69 69 67 66 63 57 51 49 49 46 42 42 47 49 49 48 46 53 67 79 85 89 96 104 107 107 107 110 113 122 124 123 122 111 110 111 99 70 45 34 30 31 15 15 22
81 79 72 69 68 67 67 64 62 56 50 48 46 42 40 42 46 48 51 52 54 62 69 77 84 87 93 94 95 100 104 101 99 107 116 120 112 93 89 94 81 61 54 49 51 38 19 14 10
82 80 74 71 66 66 66 64 63 56 50 44 41 41 43 42 45 49 55 58 59 64 69 76 82 84 88 91 86 88 93 89 89 100 105 103 90 80 81 73 73 65 58 57 63 50 43 43 30
81 79 76 70 67 64 62 61 58 53 47 42 39 39 40 41 41 46 56 59 61 67 71 77 81 87 87 85 84 85 83 86 91 94 93 88 79 75 77 72 67 55 55 54 55 52 47 42 28
81 78 76 72 68 65 61 60 58 52 47 42 39 38 37 39 39 45 55 60 60 65 72 79 81 83 83 84 86 88 90 93 91 88 92 89 80 77 76 73 66 55 45 48 55 36 27 23 8
77 75 73 71 68 65 63 61 57 53 49 43 41 39 40 42 42 47 54 59 59 64 72 80 81 81 80 80 84 86 85 93 92 86 85 87 81 78 73 70 57 51 44 40 33 14 9 358 354
77 73 71 70 67 63 61 61 58 54 48 43 40 41 41 47 47 51 53 54 60 67 73 79 80 80 81 85 89 80 81 90 93 92 89 84 75 74 72 68 56 45 39 21 16 15 3 350 344
71 70 69 69 65 62 61 59 57 55 49 43 41 42 40 45 48 51 52 54 61 70 78 79 74 73 77 81 85 85 87 91 91 95 94 89 83 78 69 54 41 34 29 13 2 356 347 343 339
63 59 61 64 63 61 58 55 55 53 49 44 42 43 43 44 48 51 53 57 64 71 76 77 75 75 81 84 85 86 91 93 90 90 92 91 86 77 66 52 32 21 8 354 341 338 332 336 336
59 56 59 61 61 59 56 51 51 50 46 42 40 41 42 42 47 52 57 62 67 68 74 76 75 76 80 82 83 82 88 88 85 88 90 87 81 74 59 48 30 3 342 337 333 324 315 317 320
53 50 53 54 55 54 50 48 48 48 46 44 42 41 41 44 47 50 54 58 63 67 68 74 75 77 79 82 82 77 83 82 78 80 80 76 71 58 41 30 16 356 336 320 322 319 313 310 312
58 53 49 45 48 49 47 48 46 43 45 44 43 42 45 45 46 45 44 46 55 68 71 73 67 73 77 79 79 77 78 77 64 66 61 51 29 11 2 360 353 341 329 317 309 310 310 310 309
67 50 39 36 40 42 41 46 47 42 42 43 41 40 43 43 41 43 42 42 48 57 69 71 73 74 77 75 72 78 80 72 52 39 31 359 333 332 333 331 323 318 317 313 309 307 305 305 307
80 53 39 33 36 33 37 44 46 42 39 38 36 35 39 35 34 38 43 40 43 44 52 52 53 57 74 84 76 74 70 52 28 359 320 310 308 310 305 305 314 310 307 307 308 304 303 301 302
56 54 39 31 38 37 39 44 39 41 40 35 33 29 27 32 30 28 32 34 36 40 38 39 42 57 79 73 70 71 52 26 3 336 307 300 303 302 299 299 307 310 307 304 307 308 306 301 297
255 298 315 341 3 24 33 43 32 37 40 34 30 24 21 27 24 23 26 27 28 33 31 28 35 49 72 59 45 21 8 349 340 326 314 302 299 300 298 299 302 303 301 299 301 303 302 299 298
252 267 269 275 296 327 346 18 28 26 27 21 19 19 19 21 15 17 21 20 16 19 22 23 13 11 17 11 3 346 337 331 323 316 310 297 294 297 297 299 298 297 295 294 297 298 298 297 296
254 260 259 264 277 285 298 321 343 348 348 358 3 8 11 11 10 9 5 1 357 358 358 4 5 355 351 338 312 303 319 324 315 313 311 297 293 294 296 296 297 297 293 290 291 294 295 295 295
248 255 258 259 267 277 283 288 302 325 337 342 348 352 1 354 350 348 343 341 342 338 333 327 325 323 326 325 307 305 308 315 318 318 314 310 300 298 298 296 296 295 294 292 290 291 292 294 294
245 251 255 257 260 269 275 280 295 307 316 323 324 329 333 331 327 322 324 323 328 325 319 317 307 306 311 314 305 302 308 311 312 311 309 308 304 300 298 296 298 296 295 294 293 292 293 294 294
246 252 255 257 261 265 272 279 288 289 297 304 308 316 315 311 313 310 314 315 318 315 313 306 305 305 300 298 297 299 303 303 301 299 302 300 300 301 299 297 298 298 295 293 293 294 294 293 293
249 251 254 257 261 266 273 280 283 290 294 294 298 305 307 299 301 306 307 308 311 315 312 309 305 302 294 289 287 293 296 301 299 297 295 294 300 304 303 300 297 296 296 294 293 292 293 293 293
249 250 253 257 260 264 271 279 283 286 289 292 294 297 301 301 302 302 306 312 317 317 313 311 304 302 295 295 293 288 294 299 300 297 294 295 300 303 304 303 301 297 295 294 294 293 292 292 293
248 251 255 259 259 263 269 272 279 283 285 287 290 291 295 299 303 304 307 309 311 312 310 308 304 299 299 301 300 296 294 295 297 296 295 295 298 300 301 302 301 299 296 294 294 292 290 291 291
248 252 256 261 262 264 265 269 276 280 282 283 288 289 294 293 294 295 298 299 299 305 305 303 300 295 296 300 300 298 291 293 296 295 294 294 296 299 300 300 299 297 296 296 295 294 291 291 291
245 249 254 258 260 263 265 268 274 275 276 281 287 288 292 290 289 289 289 288 288 295 300 300 297 292 290 291 293 293 289 291 294 295 298 294 293 294 297 298 298 298 298 299 298 298 296 294 292
249 248 250 253 259 264 268 270 273 274 276 282 286 286 288 290 290 288 284 283 283 287 293 295 294 292 294 296 295 296 293 292 293 293 296 297 295 293 294 295 298 300 300 300 300 298 297 295 292
249 249 251 254 258 264 268 270 272 274 276 281 282 282 288 285 284 285 285 282 286 289 292 293 296 298 296 294 295 296 295 293 292 293 295 295 296 294 294 294 295 299 300 300 299 298 300 298 295
249 250 251 255 260 263 267 270 270 274 277 279 282 284 285 285 285 287 285 282 285 289 290 291 295 299 300 297 293 293 294 297 297 296 295 296 298 298 294 293 294 296 297 298 297 297 299 298 295
Height
5884 5884 5885 5885 5885 5884 5882 5882 5881 5881 5880 5880 5879 5879 5879 5879 5879 5881 5878 5876 5876 5875 5875 5874 5873 5871 5868 5868 5872 5875 5876 5877 5878 5879 5879 5880 5881 5882 5882 5883 5883 5883 5883 5884 5884 5884 5884 5884 5884
5886 5887 5887 5887 5886 5885 5885 5883 5883 5882 5882 5881 5881 5880 5880 5879 5879 5879 5878 5877 5877 5876 5876 5875 5874 5873 5873 5873 5875 5876 5877 5878 5879 5879 5880 5881 5881 5882 5882 5883 5883 5884 5884 5884 5884 5884 5884 5884 5885
5889 5889 5890 5889 5887 5887 5886 5885 5884 5884 5884 5883 5882 5881 5881 5880 5880 5879 5879 5878 5878 5877 5877 5876 5876 5875 5875 5876 5876 5877 5878 5879 5879 5880 5880 5881 5881 5882 5883 5883 5884 5884 5884 5884 5884 5885 5885 5885 5885
5892 5892 5892 5891 5889 5888 5888 5887 5886 5885 5885 5884 5883 5882 5881 5881 5881 5880 5880 5879 5879 5879 5878 5878 5877 5877 5877 5877 5877 5878 5879 5879 5880 5880 5881 5882 5882 5883 5883 5883 5884 5884 5885 5885 5884 5885 5885 5885 5885
5894 5894 5893 5892 5891 5890 5889 5888 5887 5887 5886 5885 5885 5883 5883 5882 5882 5881 5880 5880 5880 5880 5879 5879 5879 5878 5878 5878 5879 5879 5880 5880 5881 5881 5882 5882 5883 5883 5883 5884 5884 5885 5885 5885 5885 5885 5885 5884 5885
5896 5895 5895 5893 5893 5892 5891 5890 5889 5888 5887 5886 5886 5884 5884 5883 5883 5882 5882 5881 5881 5881 5880 5880 5880 5879 5879 5879 5880 5880 5881 5881 5881 5882 5882 5883 5883 5883 5884 5884 5885 5885 5885 5885 5885 5885 5885 5885 5884
5898 5897 5896 5895 5894 5893 5893 5891 5890 5889 5889 5888 5887 5886 5885 5884 5884 5883 5883 5883 5882 5882 5881 5881 5880 5880 5880 5881 5881 5881 5881 5882 5882 5883 5883 5884 5884 5884 5884 5885 5885 5885 5885 5885 5885 5885 5885 5884 5884
5900 5900 5898 5897 5896 5895 5894 5893 5891 5891 5890 5890 5889 5888 5886 5886 5885 5884 5884 5884 5883 5883 5882 5882 5882 5882 5882 5882 5882 5882 5882 5883 5883 5883 5884 5884 5885 5885 5885 5885 5885 5885 5885 5885 5885 5885 5884 5884 5884
5901 5902 5899 5898 5898 5897 5896 5895 5893 5892 5892 5891 5890 5889 5888 5887 5886 5886 5885 5885 5884 5884 5883 5883 5883 5883 5883 5882 5883 5883 5883 5884 5884 5884 5884 5885 5885 5885 5885 5885 5885 5885 5884 5884 5884 5884 5884 5884 5883
5903 5902 5902 5901 5900 5899 5897 5896 5895 5894 5893 5892 5891 5890 5889 5888 5888 5887 5886 5886 5885 5885 5884 5884 5884 5884 5883 5883 5884 5884 5884 5884 5885 5885 5885 5885 5885 5885 5885 5885 5885 5884 5884 5884 5884 5883 5883 5883 5883
5904 5903 5903 5902 5901 5900 5899 5898 5897 5896 5895 5894 5893 5892 5891 5890 5889 5888 5887 5887 5886 5886 5885 5885 5885 5884 5884 5884 5884 5884 5885 5885 5885 5885 5885 5885 5885 5885 5885 5885 5884 5884 5884 5883 5883 5883 5883 5882 5882
5905 5905 5904 5904 5903 5901 5900 5899 5898 5897 5897 5895 5894 5893 5892 5891 5890 5889 5888 5887 5887 5887 5886 5885 5885 5885 5885 5885 5885 5885 5884 5884 5885 5885 5885 5885 5885 5885 5884 5884 5884 5883 5883 5883 5882 5882 5882 5882 5881
5906 5906 5905 5905 5904 5903 5902 5900 5899 5899 5897 5896 5895 5894 5893 5892 5891 5890 5889 5888 5887 5887 5886 5886 5885 5885 5885 5885 5885 5885 5884 5884 5884 5884 5884 5885 5885 5884 5884 5884 5883 5883 5882 5882 5882 5881 5881 5880 5880
5906 5906 5906 5905 5905 5904 5903 5902 5901 5900 5899 5898 5897 5896 5895 5894 5892 5891 5890 5889 5888 5887 5887 5886 5886 5885 5885 5885 5885 5885 5885 5884 5884 5884 5884 5884 5884 5884 5884 5883 5883 5882 5881 5881 5880 5880 5879 5879 5878
5906 5906 5906 5905 5904 5904 5904 5903 5902 5901 5900 5899 5898 5897 5896 5894 5893 5892 5891 5890 5889 5887 5886 5886 5885 5885 5885 5885 5885 5885 5884 5884 5884 5884 5884 5884 5884 5883 5883 5882 5882 5881 5880 5880 5879 5878 5878 5878 5877
5906 5906 5906 5906 5905 5904 5906 5905 5903 5902 5901 5900 5899 5898 5897 5895 5894 5892 5891 5890 5889 5888 5887 5886 5885 5885 5884 5884 5884 5884 5884 5884 5883 5883 5883 5883 5882 5882 5882 5881 5881 5880 5879 5879 5878 5877 5876 5876 5875
5906 5906 5905 5906 5905 5904 5905 5905 5904 5902 5902 5901 5900 5898 5897 5896 5894 5893 5891 5890 5889 5888 5886 5886 5885 5885 5884 5884 5883 5883 5883 5883 5882 5882 5881 5881 5881 5881 5880 5880 5879 5878 5878 5877 5876 5875 5874 5874 5873
5905 5905 5905 5905 5905 5904 5904 5904 5903 5902 5902 5901 5900 5898 5897 5896 5894 5893 5892 5890 5889 5888 5886 5885 5885 5884 5883 5883 5882 5882 5882 5882 5881 5880 5880 5880 5879 5879 5878 5878 5877 5876 5875 5874 5873 5873 5872 5871 5870
5903 5904 5904 5904 5903 5904 5904 5903 5902 5902 5901 5900 5899 5898 5897 5895 5894 5893 5892 5891 5889 5888 5887 5885 5884 5884 5883 5882 5882 5881 5881 5881 5880 5879 5879 5878 5878 5877 5876 5876 5875 5874 5873 5872 5871 5870 5869 5868 5867
5902 5902 5903 5903 5902 5902 5902 5902 5901 5901 5900 5900 5899 5897 5896 5895 5893 5892 5891 5890 5889 5887 5886 5884 5883 5883 5882 5881 5881 5880 5880 5879 5878 5878 5877 5876 5875 5875 5874 5873 5872 5871 5870 5869 5868 5867 5866 5865 5863
5900 5901 5901 5901 5900 5900 5901 5901 5900 5900 5899 5899 5898 5897 5896 5894 5893 5891 5890 5888 5887 5886 5884 5883 5882 5881 5880 5880 5879 5878 5878 5877 5876 5876 5875 5874 5873 5872 5871 5870 5869 5868 5867 5865 5864 5863 5862 5861 5860
5898 5899 5899 5899 5898 5899 5899 5899 5899 5898 5898 5897 5897 5896 5895 5893 5891 5889 5888 5886 5885 5884 5882 5881 5880 5879 5878 5878 5877 5877 5876 5875 5874 5873 5872 5871 5870 5869 5868 5867 5866 5865 5863 5862 5860 5859 5858 5856 5855
5895 5896 5896 5896 5896 5897 5897 5896 5898 5896 5896 5896 5895 5894 5893 5891 5890 5888 5887 5885 5883 5882 5881 5880 5878 5877 5876 5875 5875 5874 5874 5873 5872 5871 5870 5868 5867 5866 5865 5864 5862 5861 5859 5858 5856 5854 5853 5851 5850
5891 5892 5893 5893 5893 5894 5894 5894 5895 5894 5894 5894 5893 5892 5891 5889 5888 5887 5885 5883 5882 5881 5879 5878 5877 5875 5874 5873 5872 5871 5871 5871 5869 5868 5867 5866 5864 5863 5862 5860 5858 5857 5855 5853 5851 5850 5848 5846 5845
5887 5889 5889 5889 5889 5890 5891 5891 5892 5892 5892 5891 5890 5889 5888 5887 5886 5885 5883 5882 5881 5879 5878 5876 5875 5874 5872 5871 5870 5869 5868 5868 5867 5866 5864 5863 5861 5860 5858 5856 5854 5853 5851 5849 5847 5845 5843 5841 5840
5883 5885 5886 5886 5886 5887 5887 5887 5889 5889 5889 5888 5887 5886 5885 5885 5884 5883 5881 5880 5878 5877 5876 5874 5873 5871 5870 5869 5868 5866 5865 5864 5863 5863 5861 5859 5858 5856 5854 5852 5850 5848 5846 5844 5842 5840 5838 5836 5834
5878 5879 5881 5882 5882 5882 5882 5884 5885 5885 5885 5884 5884 5883 5882 5881 5881 5880 5878 5877 5876 5875 5873 5871 5870 5869 5867 5865 5865 5863 5862 5861 5860 5859 5857 5855 5854 5852 5850 5848 5845 5843 5841 5839 5837 5835 5833 5831 5829
5874 5875 5876 5877 5876 5877 5878 5879 5880 5881 5881 5881 5880 5879 5879 5878 5877 5876 5874 5874 5872 5871 5870 5868 5866 5865 5864 5862 5861 5860 5859 5857 5856 5854 5853 5851 5849 5847 5845 5843 5841 5839 5837 5834 5832 5829 5827 5825 5823
5869 5870 5871 5872 5872 5873 5873 5877 5876 5877 5877 5876 5876 5876 5875 5874 5873 5872 5870 5869 5869 5867 5866 5864 5862 5861 5860 5859 5858 5856 5855 5853 5851 5850 5848 5847 5844 5842 5840 5838 5836 5834 5832 5829 5827 5824 5822 5820 5818
5864 5865 5866 5867 5867 5868 5868 5872 5871 5872 5872 5872 5871 5871 5870 5870 5869 5868 5867 5866 5865 5863 5862 5860 5859 5858 5856 5855 5853 5852 5850 5848 5847 5845 5843 5841 5839 5836 5835 5833 5831 5829 5827 5824 5821 5819 5817 5814 5812